Medicine Lodge, KS

6:15 PM CST on November 18, 2017 (GMT -0600)
Medicine Lodge

Weather History for KP28 - April, 2013

Change the Weather History Date:

Monday, April 8, 2013

  Actual Average Record
Temperature  
Mean Temperature 68 °F 54 °F  
Max Temperature 77 °F 66 °F 95 °F (1905)
Min Temperature 58 °F 41 °F 25 °F (1899)
Degree Days  
Heating Degree Days 0 12  
Month to date heating degree days 121 102  
Since 1 July heating degree days 4083 4199  
Cooling Degree Days 3 0  
Month to date cooling degree days 3 0  
Year to date cooling degree days 4 2  
Growing Degree Days 16 (Base 50)    
Moisture  
Dew Point 59 °F    
Average Humidity 79    
Maximum Humidity 100    
Minimum Humidity 57    
Precipitation  
Precipitation 0.00 in 0.06 in 2.00 in (1997)
Month to date precipitation 0.30 0.51  
Year to date precipitation 6.26 4.52  
Snow  
Snow 0.00 in 0.00 in - ()
Month to date snowfall 0.0 0.0  
Since 1 July snowfall 25.0 8.5  
Snow Depth 0.00 in    
Sea Level Pressure  
Sea Level Pressure 29.56 in    
Wind  
Wind Speed 13 mph (SE)    
Max Wind Speed 22 mph    
Max Gust Speed 34 mph    
T = Trace of Precipitation, MM = Missing Value Source: NWS Daily Summary

Daily Weather History Graph

Daily Weather History Graph

Search for Another Location

Airport or City:

Trip Planner

Search our weather history database for the weather conditions in past years. The results will help you decide how hot, cold, wet, or windy it might be!

Date:

Astronomy

Apr. 08, 2013 Rise Set
Actual Time 7:09 AM CDT 8:03 PM CDT
Civil Twilight 6:42 AM CDT 8:30 PM CDT
Nautical Twilight 6:11 AM CDT 9:01 PM CDT
Astronomical Twilight 5:38 AM CDT 9:34 PM CDT
Moon 5:58 AM CDT (4/8) 6:40 PM CDT (4/8)
Length of Visible Light 13h 47m
Length of Day
12h 54m
Waning Crescent, 3% of the Moon is Illuminated
Apr 8
Waning Crescent
Apr 10
New
Apr 18
First Quarter
Apr 25
Full
May 2
Last Quarter

Hourly Weather History & Observations

Time (CDT) Temp. Dew Point Humidity Pressure Visibility Wind Dir Wind Speed Gust Speed Precip Events Conditions
12:56 AM 57.9 °F 57.0 °F 97% 29.63 in - SE 9.2 mph - N/A   Unknown
1:56 AM 57.9 °F 57.0 °F 97% 29.63 in - SSE 9.2 mph - N/A   Unknown
2:56 AM 59.0 °F 57.9 °F 96% 29.61 in - SE 8.1 mph - N/A   Unknown
3:56 AM 59.0 °F 57.9 °F 96% 29.59 in - SSE 5.8 mph - N/A   Unknown
4:56 AM 57.9 °F 57.0 °F 97% 29.58 in - ESE 6.9 mph - N/A   Unknown
5:56 AM 59.0 °F 57.9 °F 96% 29.59 in - East 5.8 mph - N/A   Unknown
6:56 AM 59.0 °F 57.9 °F 96% 29.61 in - ENE 9.2 mph - N/A   Unknown
7:56 AM 59.0 °F 57.9 °F 96% 29.60 in - East 10.4 mph - N/A   Unknown
8:56 AM 60.1 °F 57.9 °F 93% 29.61 in - ESE 10.4 mph - N/A   Unknown
9:56 AM 61.0 °F 59.0 °F 93% 29.61 in - ESE 8.1 mph - N/A   Unknown
10:56 AM 66.0 °F 60.1 °F 81% 29.60 in - SE 12.7 mph 19.6 mph N/A   Unknown
11:56 AM 69.1 °F 57.0 °F 65% 29.59 in - SSE 12.7 mph 23.0 mph N/A   Unknown
12:56 PM 70.0 °F 57.0 °F 63% 29.58 in - SSE 11.5 mph 23.0 mph N/A   Unknown
1:56 PM 73.0 °F 57.0 °F 57% 29.55 in - South 16.1 mph 23.0 mph N/A   Unknown
2:56 PM 73.9 °F 57.9 °F 57% 29.53 in - South 16.1 mph 25.3 mph N/A   Unknown
3:56 PM 75.0 °F 60.1 °F 60% 29.51 in - SSE 16.1 mph 23.0 mph N/A   Unknown
4:56 PM 75.9 °F 61.0 °F 60% 29.48 in - SSE 17.3 mph 26.5 mph N/A   Unknown
5:56 PM 75.9 °F 62.1 °F 62% 29.48 in - SE 16.1 mph 25.3 mph N/A   Unknown
6:56 PM 75.0 °F 62.1 °F 64% 29.49 in - SSE 16.1 mph 27.6 mph N/A   Unknown
7:56 PM 73.0 °F 61.0 °F 66% 29.49 in - SE 13.8 mph 24.2 mph N/A   Unknown
8:56 PM 72.0 °F 61.0 °F 68% 29.49 in - SSE 17.3 mph 31.1 mph N/A   Unknown
9:56 PM 70.0 °F 60.1 °F 71% 29.52 in - SSE 18.4 mph 31.1 mph N/A   Unknown
10:56 PM 68.0 °F 60.1 °F 76% 29.52 in - SSE 16.1 mph 25.3 mph N/A   Unknown
11:56 PM 66.9 °F 61.0 °F 81% 29.52 in - SSE 15.0 mph 32.2 mph N/A   Unknown